Mount Etna, Indiana
Current Conditions -  °F | °C
As of 11:15 PM on Wednesday 26 Nov 2014 (Local Time) from KHHG Reporting Station
Overcast Overcast  
Wind Chill: 28°   Ceiling: 2600
Heat Index: 28°   Visibility: 10mi
Dew Point: 23°   Wind: 3mph
Humidity: 82%   Direction: 350°N
Pressure: 30.1"   Gusts: NA
Location:  40.9238°N, 85.5001°W
Report Text: KHHG 270415Z AUTO 35003KT 10SM OVC026 M02/M05 A3010 RMK AO2 T10251052
Loading
Personal Weather Stations






























Interactive Weather Map New forecast layout! Learn more

10-Day Weather Forecast

Advertisements
Track Severe Weather on mobile